Year,Month,Day,Hour,Minute,Value (Times are PST for temperature in C)
2019,01,28,00,00,2.60
2019,01,28,00,01,2.60
2019,01,28,00,02,2.60
2019,01,28,00,03,2.50
2019,01,28,00,04,2.50
2019,01,28,00,05,2.50
2019,01,28,00,06,2.40
2019,01,28,00,07,2.40
2019,01,28,00,08,2.40
2019,01,28,00,09,2.40
2019,01,28,00,10,2.40
2019,01,28,00,11,2.30
2019,01,28,00,12,2.30
2019,01,28,00,13,2.30
2019,01,28,00,14,2.30
2019,01,28,00,15,2.30
2019,01,28,00,16,2.30
2019,01,28,00,17,2.40
2019,01,28,00,18,2.50
2019,01,28,00,19,2.60
2019,01,28,00,20,2.70
2019,01,28,00,21,2.80
2019,01,28,00,22,2.80
2019,01,28,00,23,2.90
2019,01,28,00,24,2.90
2019,01,28,00,25,3.00
2019,01,28,00,26,3.00
2019,01,28,00,27,3.10
2019,01,28,00,28,3.20
2019,01,28,00,29,3.20
2019,01,28,00,30,3.20
2019,01,28,00,31,3.20
2019,01,28,00,32,3.20
2019,01,28,00,33,3.20
2019,01,28,00,34,3.10
2019,01,28,00,35,3.00
2019,01,28,00,36,3.00
2019,01,28,00,37,3.00
2019,01,28,00,38,3.00
2019,01,28,00,39,3.00
2019,01,28,00,40,3.10
2019,01,28,00,41,3.10
2019,01,28,00,42,3.10
2019,01,28,00,43,3.00
2019,01,28,00,44,3.10
2019,01,28,00,45,3.10
2019,01,28,00,46,3.10
2019,01,28,00,47,3.10
2019,01,28,00,48,3.10
2019,01,28,00,49,3.10
2019,01,28,00,50,3.20
2019,01,28,00,51,3.20
2019,01,28,00,52,3.20
2019,01,28,00,53,3.20
2019,01,28,00,54,3.30
2019,01,28,00,55,3.30
2019,01,28,00,56,3.30
2019,01,28,00,57,3.30
2019,01,28,00,58,3.30
2019,01,28,00,59,3.30
2019,01,28,01,00,3.30
2019,01,28,01,01,3.30
2019,01,28,01,02,3.30
2019,01,28,01,03,3.40
2019,01,28,01,04,3.40
2019,01,28,01,05,3.50
2019,01,28,01,06,3.50
2019,01,28,01,07,3.60
2019,01,28,01,08,3.60
2019,01,28,01,09,3.70
2019,01,28,01,10,3.70
2019,01,28,01,11,3.70
2019,01,28,01,12,3.70
2019,01,28,01,13,3.70
2019,01,28,01,14,3.70
2019,01,28,01,15,3.60
2019,01,28,01,16,3.50
2019,01,28,01,17,3.50
2019,01,28,01,18,3.40
2019,01,28,01,19,3.30
2019,01,28,01,20,3.30
2019,01,28,01,21,3.30
2019,01,28,01,22,3.30
2019,01,28,01,23,3.30
2019,01,28,01,24,3.30
2019,01,28,01,25,3.30
2019,01,28,01,26,3.30
2019,01,28,01,27,3.30
2019,01,28,01,28,3.30
2019,01,28,01,29,3.30
2019,01,28,01,30,3.30
2019,01,28,01,31,3.30
2019,01,28,01,32,3.30
2019,01,28,01,33,3.40
2019,01,28,01,34,3.50
2019,01,28,01,35,3.70
2019,01,28,01,36,3.80
2019,01,28,01,37,3.90
2019,01,28,01,38,4.00
2019,01,28,01,39,4.00
2019,01,28,01,40,4.00
2019,01,28,01,41,4.10
2019,01,28,01,42,4.10
2019,01,28,01,43,4.10
2019,01,28,01,44,4.20
2019,01,28,01,45,4.20
2019,01,28,01,46,4.20
2019,01,28,01,47,4.20
2019,01,28,01,48,4.20
2019,01,28,01,49,4.20
2019,01,28,01,50,4.20
2019,01,28,01,51,4.20
2019,01,28,01,52,4.30
2019,01,28,01,53,4.30
2019,01,28,01,54,4.30
2019,01,28,01,55,4.30
2019,01,28,01,56,4.30
2019,01,28,01,57,4.30
2019,01,28,01,58,4.30
2019,01,28,01,59,4.30
2019,01,28,02,00,4.30
2019,01,28,02,01,4.40
2019,01,28,02,02,4.40
2019,01,28,02,03,4.40
2019,01,28,02,04,4.40
2019,01,28,02,05,4.40
2019,01,28,02,06,4.40
2019,01,28,02,07,4.30
2019,01,28,02,08,4.30
2019,01,28,02,09,4.30
2019,01,28,02,10,4.40
2019,01,28,02,11,4.40
2019,01,28,02,12,4.30
2019,01,28,02,13,4.30
2019,01,28,02,14,4.30
2019,01,28,02,15,4.30
2019,01,28,02,16,4.30
2019,01,28,02,17,4.30
2019,01,28,02,18,4.30
2019,01,28,02,19,4.30
2019,01,28,02,20,4.30
2019,01,28,02,21,4.20
2019,01,28,02,22,4.20
2019,01,28,02,23,4.20
2019,01,28,02,24,4.20
2019,01,28,02,25,4.20
2019,01,28,02,26,4.20
2019,01,28,02,27,4.20
2019,01,28,02,28,4.20
2019,01,28,02,29,4.20
2019,01,28,02,30,4.20
2019,01,28,02,31,4.20
2019,01,28,02,32,4.20
2019,01,28,02,33,4.20
2019,01,28,02,34,4.20
2019,01,28,02,35,4.20
2019,01,28,02,36,4.20
2019,01,28,02,37,4.20
2019,01,28,02,38,4.20
2019,01,28,02,39,4.10
2019,01,28,02,40,4.10
2019,01,28,02,41,4.20
2019,01,28,02,42,4.20
2019,01,28,02,43,4.20
2019,01,28,02,44,4.20
2019,01,28,02,45,4.20
2019,01,28,02,46,4.30
2019,01,28,02,47,4.30
2019,01,28,02,48,4.30
2019,01,28,02,49,4.30
2019,01,28,02,50,4.30
2019,01,28,02,51,4.30
2019,01,28,02,52,4.40
2019,01,28,02,53,4.40
2019,01,28,02,54,4.50
2019,01,28,02,55,4.50
2019,01,28,02,56,4.50
2019,01,28,02,57,4.60
2019,01,28,02,58,4.60
2019,01,28,02,59,4.60
2019,01,28,03,00,4.60
2019,01,28,03,01,4.60
2019,01,28,03,02,4.60
2019,01,28,03,03,4.60
2019,01,28,03,04,4.60
2019,01,28,03,05,4.60
2019,01,28,03,06,4.60
2019,01,28,03,07,4.50
2019,01,28,03,08,4.50
2019,01,28,03,09,4.40
2019,01,28,03,10,4.40
2019,01,28,03,11,4.30
2019,01,28,03,12,4.30
2019,01,28,03,13,4.30
2019,01,28,03,14,4.20
2019,01,28,03,15,4.00
2019,01,28,03,16,3.90
2019,01,28,03,17,3.70
2019,01,28,03,18,3.70
2019,01,28,03,19,3.60
2019,01,28,03,20,3.60
2019,01,28,03,21,3.60
2019,01,28,03,22,3.60
2019,01,28,03,23,3.60
2019,01,28,03,24,3.60
2019,01,28,03,25,3.60
2019,01,28,03,26,3.60
2019,01,28,03,27,3.60
2019,01,28,03,28,3.60
2019,01,28,03,29,3.60
2019,01,28,03,30,3.70
2019,01,28,03,31,3.70
2019,01,28,03,32,3.70
2019,01,28,03,33,3.70
2019,01,28,03,34,3.80
2019,01,28,03,35,3.80
2019,01,28,03,36,3.70
2019,01,28,03,37,3.70
2019,01,28,03,38,3.70
2019,01,28,03,39,3.60
2019,01,28,03,40,3.60
2019,01,28,03,41,3.60
2019,01,28,03,42,3.50
2019,01,28,03,43,3.50
2019,01,28,03,44,3.50
2019,01,28,03,45,3.50
2019,01,28,03,46,3.50
2019,01,28,03,47,3.50
2019,01,28,03,48,3.40
2019,01,28,03,49,3.40
2019,01,28,03,50,3.30
2019,01,28,03,51,3.40
2019,01,28,03,52,3.50
2019,01,28,03,53,3.50
2019,01,28,03,54,3.50
2019,01,28,03,55,3.60
2019,01,28,03,56,3.60
2019,01,28,03,57,3.60
2019,01,28,03,58,3.70
2019,01,28,03,59,3.70
2019,01,28,04,00,3.80
2019,01,28,04,01,3.80
2019,01,28,04,02,3.90
2019,01,28,04,03,4.00
2019,01,28,04,04,4.10
2019,01,28,04,05,4.10
2019,01,28,04,06,4.20
2019,01,28,04,07,4.20
2019,01,28,04,08,4.20
2019,01,28,04,09,4.20
2019,01,28,04,10,4.20
2019,01,28,04,11,4.20
2019,01,28,04,12,4.20
2019,01,28,04,13,4.20
2019,01,28,04,14,4.20
2019,01,28,04,15,4.10
2019,01,28,04,16,4.10
2019,01,28,04,17,4.10
2019,01,28,04,18,4.10
2019,01,28,04,19,4.10
2019,01,28,04,20,4.10
2019,01,28,04,21,4.10
2019,01,28,04,22,4.10
2019,01,28,04,23,4.10
2019,01,28,04,24,4.10
2019,01,28,04,25,4.10
2019,01,28,04,26,4.10
2019,01,28,04,27,4.00
2019,01,28,04,28,4.00
2019,01,28,04,29,4.00
2019,01,28,04,30,4.00
2019,01,28,04,31,4.00
2019,01,28,04,32,3.90
2019,01,28,04,33,3.90
2019,01,28,04,34,4.00
2019,01,28,04,35,4.00
2019,01,28,04,36,4.00
2019,01,28,04,37,4.00
2019,01,28,04,38,4.00
2019,01,28,04,39,4.00
2019,01,28,04,40,4.00
2019,01,28,04,41,4.10
2019,01,28,04,42,4.10
2019,01,28,04,43,4.00
2019,01,28,04,44,4.10
2019,01,28,04,45,4.10
2019,01,28,04,46,4.00
2019,01,28,04,47,4.10
2019,01,28,04,48,4.00
2019,01,28,04,49,4.00
2019,01,28,04,50,3.90
2019,01,28,04,51,3.90
2019,01,28,04,52,3.90
2019,01,28,04,53,3.90
2019,01,28,04,54,3.90
2019,01,28,04,55,3.90
2019,01,28,04,56,3.90
2019,01,28,04,57,3.90
2019,01,28,04,58,3.90
2019,01,28,04,59,3.90
2019,01,28,05,00,3.90
2019,01,28,05,01,3.90
2019,01,28,05,02,3.90
2019,01,28,05,03,3.90
2019,01,28,05,04,3.90
2019,01,28,05,05,3.90
2019,01,28,05,06,3.90
2019,01,28,05,07,4.00
2019,01,28,05,08,4.00
2019,01,28,05,09,4.10
2019,01,28,05,10,4.20
2019,01,28,05,11,4.20
2019,01,28,05,12,4.20
2019,01,28,05,13,4.20
2019,01,28,05,14,4.20
2019,01,28,05,15,4.20
2019,01,28,05,16,4.20
2019,01,28,05,17,4.10
2019,01,28,05,18,4.10
2019,01,28,05,19,4.10
2019,01,28,05,20,4.00
2019,01,28,05,21,4.10
2019,01,28,05,22,4.10
2019,01,28,05,23,4.10
2019,01,28,05,24,4.10
2019,01,28,05,25,4.20
2019,01,28,05,26,4.20
2019,01,28,05,27,4.20
2019,01,28,05,28,4.20
2019,01,28,05,29,4.20
2019,01,28,05,30,4.20
2019,01,28,05,31,4.20
2019,01,28,05,32,4.30
2019,01,28,05,33,4.30
2019,01,28,05,34,4.30
2019,01,28,05,35,4.40
2019,01,28,05,36,4.40
2019,01,28,05,37,4.40
2019,01,28,05,38,4.40
2019,01,28,05,39,4.50
2019,01,28,05,40,4.50
2019,01,28,05,41,4.50
2019,01,28,05,42,4.60
2019,01,28,05,43,4.60
2019,01,28,05,44,4.70
2019,01,28,05,45,4.80
2019,01,28,05,46,4.80
2019,01,28,05,47,5.00
2019,01,28,05,48,5.00
2019,01,28,05,49,5.10
2019,01,28,05,50,5.10
2019,01,28,05,51,5.20
2019,01,28,05,52,5.10
2019,01,28,05,53,5.10
2019,01,28,05,54,5.10
2019,01,28,05,55,5.10
2019,01,28,05,56,5.10
2019,01,28,05,57,5.00
2019,01,28,05,58,5.00
2019,01,28,05,59,4.90
2019,01,28,06,00,4.90
2019,01,28,06,01,4.90
2019,01,28,06,02,4.90
2019,01,28,06,03,4.80
2019,01,28,06,04,4.80
2019,01,28,06,05,4.80
2019,01,28,06,06,4.80
2019,01,28,06,07,4.90
2019,01,28,06,08,5.00
2019,01,28,06,09,5.00
2019,01,28,06,10,5.00
2019,01,28,06,11,5.00
2019,01,28,06,12,5.00
2019,01,28,06,13,5.00
2019,01,28,06,14,5.00
2019,01,28,06,15,5.00
2019,01,28,06,16,5.00
2019,01,28,06,17,5.00
2019,01,28,06,18,5.00
2019,01,28,06,19,5.00
2019,01,28,06,20,5.00
2019,01,28,06,21,5.00
2019,01,28,06,22,5.00
2019,01,28,06,23,5.00
2019,01,28,06,24,5.00
2019,01,28,06,25,5.10
2019,01,28,06,26,5.10
2019,01,28,06,27,5.10
2019,01,28,06,28,5.20
2019,01,28,06,29,5.20
2019,01,28,06,30,5.30
2019,01,28,06,31,5.30
2019,01,28,06,32,5.30
2019,01,28,06,33,5.30
2019,01,28,06,34,5.30
2019,01,28,06,35,5.30
2019,01,28,06,36,5.30
2019,01,28,06,37,5.30
2019,01,28,06,38,5.30
2019,01,28,06,39,5.30
2019,01,28,06,40,5.30
2019,01,28,06,41,5.20
2019,01,28,06,42,5.20
2019,01,28,06,43,5.20
2019,01,28,06,44,5.20
2019,01,28,06,45,5.20
2019,01,28,06,46,5.20
2019,01,28,06,47,5.20
2019,01,28,06,48,5.20
2019,01,28,06,49,5.10
2019,01,28,06,50,5.10
2019,01,28,06,51,5.10
2019,01,28,06,52,5.10
2019,01,28,06,53,5.10
2019,01,28,06,54,5.00
2019,01,28,06,55,5.00
2019,01,28,06,56,5.00
2019,01,28,06,57,5.10
2019,01,28,06,58,5.10
2019,01,28,06,59,5.10
2019,01,28,07,00,5.10
2019,01,28,07,01,5.10
2019,01,28,07,02,5.10
2019,01,28,07,03,5.10
2019,01,28,07,04,5.00
2019,01,28,07,05,5.00
2019,01,28,07,06,4.90
2019,01,28,07,07,4.90
2019,01,28,07,08,4.80
2019,01,28,07,09,4.80
2019,01,28,07,10,4.70
2019,01,28,07,11,4.70
2019,01,28,07,12,4.70
2019,01,28,07,13,4.60
2019,01,28,07,14,4.60
2019,01,28,07,15,4.50
2019,01,28,07,16,4.40
2019,01,28,07,17,4.30
2019,01,28,07,18,4.20
2019,01,28,07,19,4.20
2019,01,28,07,20,4.10
2019,01,28,07,21,4.00
2019,01,28,07,22,3.90
2019,01,28,07,23,3.80
2019,01,28,07,24,3.70
2019,01,28,07,25,3.70
2019,01,28,07,26,3.60
2019,01,28,07,27,3.60
2019,01,28,07,28,3.50
2019,01,28,07,29,3.50
2019,01,28,07,30,3.50
2019,01,28,07,31,3.50
2019,01,28,07,32,3.60
2019,01,28,07,33,3.60
2019,01,28,07,34,3.60
2019,01,28,07,35,3.70
2019,01,28,07,36,3.70
2019,01,28,07,37,3.80
2019,01,28,07,38,3.90
2019,01,28,07,39,4.00
2019,01,28,07,40,4.00
2019,01,28,07,41,4.10
2019,01,28,07,42,4.10
2019,01,28,07,43,4.20
2019,01,28,07,44,4.20
2019,01,28,07,45,4.30
2019,01,28,07,46,4.30
2019,01,28,07,47,4.30
2019,01,28,07,48,4.30
2019,01,28,07,49,4.40
2019,01,28,07,50,4.40
2019,01,28,07,51,4.40
2019,01,28,07,52,4.40
2019,01,28,07,53,4.40
2019,01,28,07,54,4.40
2019,01,28,07,55,4.30
2019,01,28,07,56,4.30
2019,01,28,07,57,4.30
2019,01,28,07,58,4.20
2019,01,28,07,59,4.20
2019,01,28,08,00,4.10
2019,01,28,08,01,4.00
2019,01,28,08,02,4.00
2019,01,28,08,03,3.90
2019,01,28,08,04,3.80
2019,01,28,08,05,3.70
2019,01,28,08,06,3.70
2019,01,28,08,07,3.70
2019,01,28,08,08,3.60
2019,01,28,08,09,3.60
2019,01,28,08,10,3.60
2019,01,28,08,11,3.60
2019,01,28,08,12,3.60
2019,01,28,08,13,3.60
2019,01,28,08,14,3.70
2019,01,28,08,15,3.70
2019,01,28,08,16,3.70
2019,01,28,08,17,3.70
2019,01,28,08,18,3.70
2019,01,28,08,19,3.70
2019,01,28,08,20,3.70
2019,01,28,08,21,3.70
2019,01,28,08,22,3.60
2019,01,28,08,23,3.60
2019,01,28,08,24,3.60
2019,01,28,08,25,3.70
2019,01,28,08,26,3.70
2019,01,28,08,27,3.70
2019,01,28,08,28,3.80
2019,01,28,08,29,3.80
2019,01,28,08,30,3.80
2019,01,28,08,31,3.80
2019,01,28,08,32,3.80
2019,01,28,08,33,3.80
2019,01,28,08,34,3.80
2019,01,28,08,35,3.80
2019,01,28,08,36,3.80
2019,01,28,08,37,3.80
2019,01,28,08,38,3.80
2019,01,28,08,39,3.80
2019,01,28,08,40,3.80
2019,01,28,08,41,3.80
2019,01,28,08,42,3.90
2019,01,28,08,43,3.90
2019,01,28,08,44,3.90
2019,01,28,08,45,3.90
2019,01,28,08,46,3.90
2019,01,28,08,47,4.00
2019,01,28,08,48,4.00
2019,01,28,08,49,4.00
2019,01,28,08,50,4.10
2019,01,28,08,51,4.10
2019,01,28,08,52,4.20
2019,01,28,08,53,4.20
2019,01,28,08,54,4.20
2019,01,28,08,55,4.30
2019,01,28,08,56,4.30
2019,01,28,08,57,4.30
2019,01,28,08,58,4.30
2019,01,28,08,59,4.30
2019,01,28,09,00,4.40
2019,01,28,09,01,4.40
2019,01,28,09,02,4.40
2019,01,28,09,03,4.50
2019,01,28,09,04,4.50
2019,01,28,09,05,4.60
2019,01,28,09,06,4.60
2019,01,28,09,07,4.60
2019,01,28,09,08,4.70
2019,01,28,09,09,4.70
2019,01,28,09,10,4.70
2019,01,28,09,11,4.70
2019,01,28,09,12,4.70
2019,01,28,09,13,4.80
2019,01,28,09,14,4.80
2019,01,28,09,15,4.80
2019,01,28,09,16,4.80
2019,01,28,09,17,4.80
2019,01,28,09,18,4.80
2019,01,28,09,19,4.90
2019,01,28,09,20,4.90
2019,01,28,09,21,4.90
2019,01,28,09,22,4.90
2019,01,28,09,23,4.90
2019,01,28,09,24,4.90
2019,01,28,09,25,4.90
2019,01,28,09,26,4.90
2019,01,28,09,27,4.90
2019,01,28,09,28,4.90
2019,01,28,09,29,4.90
2019,01,28,09,30,4.90
2019,01,28,09,31,4.90
2019,01,28,09,32,4.90
2019,01,28,09,33,4.90
2019,01,28,09,34,4.90
2019,01,28,09,35,4.90
2019,01,28,09,36,4.90
2019,01,28,09,37,5.00
2019,01,28,09,38,5.00
2019,01,28,09,39,5.00
2019,01,28,09,40,5.00
2019,01,28,09,41,5.00
2019,01,28,09,42,5.00
2019,01,28,09,43,5.00
2019,01,28,09,44,5.10
2019,01,28,09,45,5.10
2019,01,28,09,46,5.10
2019,01,28,09,47,5.10
2019,01,28,09,48,5.20
2019,01,28,09,49,5.20
2019,01,28,09,50,5.20
2019,01,28,09,51,5.30
2019,01,28,09,52,5.30
2019,01,28,09,53,5.40
2019,01,28,09,54,5.50
2019,01,28,09,55,5.50
2019,01,28,09,56,5.60
2019,01,28,09,57,5.60
2019,01,28,09,58,5.70
2019,01,28,09,59,5.80
2019,01,28,10,00,5.80
2019,01,28,10,01,5.90
2019,01,28,10,02,5.90
2019,01,28,10,03,6.00
2019,01,28,10,04,6.00
2019,01,28,10,05,6.10
2019,01,28,10,06,6.10
2019,01,28,10,07,6.20
2019,01,28,10,08,6.20
2019,01,28,10,09,6.20
2019,01,28,10,10,6.20
2019,01,28,10,11,6.20
2019,01,28,10,12,6.20
2019,01,28,10,13,6.30
2019,01,28,10,14,6.30
2019,01,28,10,15,6.30
2019,01,28,10,16,6.40
2019,01,28,10,17,6.40
2019,01,28,10,18,6.40
2019,01,28,10,19,6.40
2019,01,28,10,20,6.50
2019,01,28,10,21,6.50
2019,01,28,10,22,6.60
2019,01,28,10,23,6.60
2019,01,28,10,24,6.60
2019,01,28,10,25,6.70
2019,01,28,10,26,6.70
2019,01,28,10,27,6.70
2019,01,28,10,28,6.70
2019,01,28,10,29,6.80
2019,01,28,10,30,6.80
2019,01,28,10,31,6.80
2019,01,28,10,32,6.80
2019,01,28,10,33,6.80
2019,01,28,10,34,6.90
2019,01,28,10,35,6.90
2019,01,28,10,36,6.90
2019,01,28,10,37,6.90
2019,01,28,10,38,6.90
2019,01,28,10,39,6.90
2019,01,28,10,40,6.90
2019,01,28,10,41,7.00
2019,01,28,10,42,7.00
2019,01,28,10,43,7.00
2019,01,28,10,44,7.00
2019,01,28,10,45,7.10
2019,01,28,10,46,7.10
2019,01,28,10,47,7.10
2019,01,28,10,48,7.10
2019,01,28,10,49,7.10
2019,01,28,10,50,7.20
2019,01,28,10,51,7.20
2019,01,28,10,52,7.20
2019,01,28,10,53,7.20
2019,01,28,10,54,7.20
2019,01,28,10,55,7.20
2019,01,28,10,56,7.20
2019,01,28,10,57,7.20
2019,01,28,10,58,7.20
2019,01,28,10,59,7.20
2019,01,28,11,00,7.20
2019,01,28,11,01,7.20
2019,01,28,11,02,7.20
2019,01,28,11,03,7.20
2019,01,28,11,04,7.20
2019,01,28,11,05,7.30
2019,01,28,11,06,7.30
2019,01,28,11,07,7.30
2019,01,28,11,08,7.30
2019,01,28,11,09,7.40
2019,01,28,11,10,7.40
2019,01,28,11,11,7.40
2019,01,28,11,12,7.40
2019,01,28,11,13,7.40
2019,01,28,11,14,7.50
2019,01,28,11,15,7.50
2019,01,28,11,16,7.50
2019,01,28,11,17,7.60
2019,01,28,11,18,7.60
2019,01,28,11,19,7.60
2019,01,28,11,20,7.60
2019,01,28,11,21,7.70
2019,01,28,11,22,7.70
2019,01,28,11,23,7.70
2019,01,28,11,24,7.70
2019,01,28,11,25,7.70
2019,01,28,11,26,7.80
2019,01,28,11,27,7.80
2019,01,28,11,28,7.80
2019,01,28,11,29,7.80
2019,01,28,11,30,7.80
2019,01,28,11,31,7.80
2019,01,28,11,32,7.80
2019,01,28,11,33,7.80
2019,01,28,11,34,7.80
2019,01,28,11,35,7.90
2019,01,28,11,36,7.90
2019,01,28,11,37,7.90
2019,01,28,11,38,7.90
2019,01,28,11,39,7.90
2019,01,28,11,40,7.90
2019,01,28,11,41,7.90
2019,01,28,11,42,7.90
2019,01,28,11,43,7.90
2019,01,28,11,44,7.90
2019,01,28,11,45,7.80
2019,01,28,11,46,7.80
2019,01,28,11,47,7.80
2019,01,28,11,48,7.80
2019,01,28,11,49,7.80
2019,01,28,11,50,7.80
2019,01,28,11,51,7.80
2019,01,28,11,52,7.70
2019,01,28,11,53,7.70
2019,01,28,11,54,7.70
2019,01,28,11,55,7.70
2019,01,28,11,56,7.70
2019,01,28,11,57,7.70
2019,01,28,11,58,7.70
2019,01,28,11,59,7.70
2019,01,28,12,00,7.80
2019,01,28,12,01,7.80
2019,01,28,12,02,7.80
2019,01,28,12,03,7.80
2019,01,28,12,04,7.90
2019,01,28,12,05,7.90
2019,01,28,12,06,8.00
2019,01,28,12,07,8.10
2019,01,28,12,08,8.20
2019,01,28,12,09,8.20
2019,01,28,12,10,8.30
2019,01,28,12,11,8.30
2019,01,28,12,12,8.40
2019,01,28,12,13,8.40
2019,01,28,12,14,8.50
2019,01,28,12,15,8.60
2019,01,28,12,16,8.70
2019,01,28,12,17,8.80
2019,01,28,12,18,8.80
2019,01,28,12,19,8.90
2019,01,28,12,20,9.00
2019,01,28,12,21,9.00
2019,01,28,12,22,9.10
2019,01,28,12,23,9.20
2019,01,28,12,24,9.20
2019,01,28,12,25,9.30
2019,01,28,12,26,9.40
2019,01,28,12,27,9.50
2019,01,28,12,28,9.60
2019,01,28,12,29,9.60
2019,01,28,12,30,9.70
2019,01,28,12,31,9.80
2019,01,28,12,32,9.80
2019,01,28,12,33,9.90
2019,01,28,12,34,9.90
2019,01,28,12,35,10.00
2019,01,28,12,36,10.00
2019,01,28,12,37,10.00
2019,01,28,12,38,10.10
2019,01,28,12,39,10.20
2019,01,28,12,40,10.20
2019,01,28,12,41,10.30
2019,01,28,12,42,10.30
2019,01,28,12,43,10.40
2019,01,28,12,44,10.40
2019,01,28,12,45,10.40
2019,01,28,12,46,10.40
2019,01,28,12,47,10.40
2019,01,28,12,48,10.40
2019,01,28,12,49,10.40
2019,01,28,12,50,10.40
2019,01,28,12,51,10.30
2019,01,28,12,52,10.30
2019,01,28,12,53,10.30
2019,01,28,12,54,10.30
2019,01,28,12,55,10.30
2019,01,28,12,56,10.40
2019,01,28,12,57,10.40
2019,01,28,12,58,10.40
2019,01,28,12,59,10.50
2019,01,28,13,00,10.60
2019,01,28,13,01,10.60
2019,01,28,13,02,10.60
2019,01,28,13,03,10.70
2019,01,28,13,04,10.70
2019,01,28,13,05,10.70
2019,01,28,13,06,10.70
2019,01,28,13,07,10.70
2019,01,28,13,08,10.70
2019,01,28,13,09,10.70
2019,01,28,13,10,10.70
2019,01,28,13,11,10.70
2019,01,28,13,12,10.70
2019,01,28,13,13,10.70
2019,01,28,13,14,10.70
2019,01,28,13,15,10.70
2019,01,28,13,16,10.70
2019,01,28,13,17,10.70
2019,01,28,13,18,10.70
2019,01,28,13,19,10.80
2019,01,28,13,20,10.80
2019,01,28,13,21,10.80
2019,01,28,13,22,10.80
2019,01,28,13,23,10.80
2019,01,28,13,24,10.80
2019,01,28,13,25,10.80
2019,01,28,13,26,10.90
2019,01,28,13,27,10.90
2019,01,28,13,28,10.90
2019,01,28,13,29,10.90
2019,01,28,13,30,10.90
2019,01,28,13,31,11.00
2019,01,28,13,32,11.00
2019,01,28,13,33,11.00
2019,01,28,13,34,11.00
2019,01,28,13,35,11.00
2019,01,28,13,36,11.00
2019,01,28,13,37,11.00
2019,01,28,13,38,11.00
2019,01,28,13,39,11.00
2019,01,28,13,40,10.90
2019,01,28,13,41,10.90
2019,01,28,13,42,10.90
2019,01,28,13,43,10.90
2019,01,28,13,44,10.90
2019,01,28,13,45,10.90
2019,01,28,13,46,10.90
2019,01,28,13,47,10.90
2019,01,28,13,48,10.90
2019,01,28,13,49,10.90
2019,01,28,13,50,10.90
2019,01,28,13,51,10.90
2019,01,28,13,52,10.90
2019,01,28,13,53,10.90
2019,01,28,13,54,10.90
2019,01,28,13,55,10.90
2019,01,28,13,56,10.90
2019,01,28,13,57,10.90
2019,01,28,13,58,10.90
2019,01,28,13,59,10.90
2019,01,28,14,00,10.90
2019,01,28,14,01,10.80
2019,01,28,14,02,10.80
2019,01,28,14,03,10.80
2019,01,28,14,04,10.80
2019,01,28,14,05,10.70
2019,01,28,14,06,10.70
2019,01,28,14,07,10.70
2019,01,28,14,08,10.70
2019,01,28,14,09,10.70
2019,01,28,14,10,10.70
2019,01,28,14,11,10.60
2019,01,28,14,12,10.60
2019,01,28,14,13,10.60
2019,01,28,14,14,10.60
2019,01,28,14,15,10.60
2019,01,28,14,16,10.50
2019,01,28,14,17,10.50
2019,01,28,14,18,10.50
2019,01,28,14,19,10.50
2019,01,28,14,20,10.50
2019,01,28,14,21,10.40
2019,01,28,14,22,10.40
2019,01,28,14,23,10.40
2019,01,28,14,24,10.40
2019,01,28,14,25,10.40
2019,01,28,14,26,10.40
2019,01,28,14,27,10.40
2019,01,28,14,28,10.40
2019,01,28,14,29,10.40
2019,01,28,14,30,10.40
2019,01,28,14,31,10.40
2019,01,28,14,32,10.40
2019,01,28,14,33,10.40
2019,01,28,14,34,10.40
2019,01,28,14,35,10.40
2019,01,28,14,36,10.40
2019,01,28,14,37,10.40
2019,01,28,14,38,10.30
2019,01,28,14,39,10.30
2019,01,28,14,40,10.30
2019,01,28,14,41,10.30
2019,01,28,14,42,10.30
2019,01,28,14,43,10.20
2019,01,28,14,44,10.30
2019,01,28,14,45,10.20
2019,01,28,14,46,10.20
2019,01,28,14,47,10.20
2019,01,28,14,48,10.20
2019,01,28,14,49,10.20
2019,01,28,14,50,10.10
2019,01,28,14,51,10.10
2019,01,28,14,52,10.10
2019,01,28,14,53,10.10
2019,01,28,14,54,10.10
2019,01,28,14,55,10.10
2019,01,28,14,56,10.10
2019,01,28,14,57,10.00
2019,01,28,14,58,10.00
2019,01,28,14,59,10.00
2019,01,28,15,00,9.90
2019,01,28,15,01,9.90
2019,01,28,15,02,9.90
2019,01,28,15,03,9.90
2019,01,28,15,04,10.00
2019,01,28,15,05,10.00
2019,01,28,15,06,10.00
2019,01,28,15,07,10.00
2019,01,28,15,08,10.00
2019,01,28,15,09,10.00
2019,01,28,15,10,10.00
2019,01,28,15,11,10.00
2019,01,28,15,12,10.00
2019,01,28,15,13,10.00
2019,01,28,15,14,10.00
2019,01,28,15,15,10.00
2019,01,28,15,16,10.00
2019,01,28,15,17,10.00
2019,01,28,15,18,10.00
2019,01,28,15,19,10.00
2019,01,28,15,20,10.00
2019,01,28,15,21,9.90
2019,01,28,15,22,9.90
2019,01,28,15,23,9.90
2019,01,28,15,24,9.90
2019,01,28,15,25,9.90
2019,01,28,15,26,9.80
2019,01,28,15,27,9.80
2019,01,28,15,28,9.70
2019,01,28,15,29,9.70
2019,01,28,15,30,9.70
2019,01,28,15,31,9.70
2019,01,28,15,32,9.70
2019,01,28,15,33,9.70
2019,01,28,15,34,9.70
2019,01,28,15,35,9.60
2019,01,28,15,36,9.60
2019,01,28,15,37,9.50
2019,01,28,15,38,9.50
2019,01,28,15,39,9.40
2019,01,28,15,40,9.40
2019,01,28,15,41,9.40
2019,01,28,15,42,9.30
2019,01,28,15,43,9.30
2019,01,28,15,44,9.30
2019,01,28,15,45,9.20
2019,01,28,15,46,9.20
2019,01,28,15,47,9.10
2019,01,28,15,48,9.00
2019,01,28,15,49,9.00
2019,01,28,15,50,8.90
2019,01,28,15,51,8.90
2019,01,28,15,52,8.90
2019,01,28,15,53,8.80
2019,01,28,15,54,8.80
2019,01,28,15,55,8.70
2019,01,28,15,56,8.70
2019,01,28,15,57,8.70
2019,01,28,15,58,8.70
2019,01,28,15,59,8.70
2019,01,28,16,00,8.70
2019,01,28,16,01,8.70
2019,01,28,16,02,8.70
2019,01,28,16,03,8.70
2019,01,28,16,04,8.60
2019,01,28,16,05,8.60
2019,01,28,16,06,8.60
2019,01,28,16,07,8.60
2019,01,28,16,08,8.60
2019,01,28,16,09,8.50
2019,01,28,16,10,8.50
2019,01,28,16,11,8.50
2019,01,28,16,12,8.50
2019,01,28,16,13,8.50
2019,01,28,16,14,8.50
2019,01,28,16,15,8.50
2019,01,28,16,16,8.50
2019,01,28,16,17,8.40
2019,01,28,16,18,8.40
2019,01,28,16,19,8.40
2019,01,28,16,20,8.40
2019,01,28,16,21,8.30
2019,01,28,16,22,8.30
2019,01,28,16,23,8.30
2019,01,28,16,24,8.20
2019,01,28,16,25,8.20
2019,01,28,16,26,8.20
2019,01,28,16,27,8.20
2019,01,28,16,28,8.20
2019,01,28,16,29,8.10
2019,01,28,16,30,8.10
2019,01,28,16,31,8.10
2019,01,28,16,32,8.10
2019,01,28,16,33,8.10
2019,01,28,16,34,8.10
2019,01,28,16,35,8.10
2019,01,28,16,36,8.10
2019,01,28,16,37,8.10
2019,01,28,16,38,8.10
2019,01,28,16,39,8.10
2019,01,28,16,40,8.10
2019,01,28,16,41,8.00
2019,01,28,16,42,8.00
2019,01,28,16,43,8.00
2019,01,28,16,44,8.00
2019,01,28,16,45,7.90
2019,01,28,16,46,7.90
2019,01,28,16,47,7.80
2019,01,28,16,48,7.70
2019,01,28,16,49,7.70
2019,01,28,16,50,7.70
2019,01,28,16,51,7.70
2019,01,28,16,52,7.60
2019,01,28,16,53,7.60
2019,01,28,16,54,7.50
2019,01,28,16,55,7.50
2019,01,28,16,56,7.40
2019,01,28,16,57,7.40
2019,01,28,16,58,7.30
2019,01,28,16,59,7.30
2019,01,28,17,00,7.30
2019,01,28,17,01,7.30
2019,01,28,17,02,7.30
2019,01,28,17,03,7.30
2019,01,28,17,04,7.30
2019,01,28,17,05,7.20
2019,01,28,17,06,7.20
2019,01,28,17,07,7.20
2019,01,28,17,08,7.10
2019,01,28,17,09,7.10
2019,01,28,17,10,7.00
2019,01,28,17,11,7.00
2019,01,28,17,12,6.90
2019,01,28,17,13,6.80
2019,01,28,17,14,6.80
2019,01,28,17,15,6.70
2019,01,28,17,16,6.70
2019,01,28,17,17,6.70
2019,01,28,17,18,6.60
2019,01,28,17,19,6.60
2019,01,28,17,20,6.50
2019,01,28,17,21,6.50
2019,01,28,17,22,6.40
2019,01,28,17,23,6.40
2019,01,28,17,24,6.40
2019,01,28,17,25,6.40
2019,01,28,17,26,6.30
2019,01,28,17,27,6.30
2019,01,28,17,28,6.20
2019,01,28,17,29,6.10
2019,01,28,17,30,6.10
2019,01,28,17,31,6.00
2019,01,28,17,32,6.00
2019,01,28,17,33,6.00
2019,01,28,17,34,5.90
2019,01,28,17,35,5.90
2019,01,28,17,36,5.80
2019,01,28,17,37,5.80
2019,01,28,17,38,5.70
2019,01,28,17,39,5.70
2019,01,28,17,40,5.60
2019,01,28,17,41,5.60
2019,01,28,17,42,5.60
2019,01,28,17,43,5.50
2019,01,28,17,44,5.40
2019,01,28,17,45,5.40
2019,01,28,17,46,5.40
2019,01,28,17,47,5.30
2019,01,28,17,48,5.30
2019,01,28,17,49,5.30
2019,01,28,17,50,5.20
2019,01,28,17,51,5.20
2019,01,28,17,52,5.20
2019,01,28,17,53,5.20
2019,01,28,17,54,5.20
2019,01,28,17,55,5.20
2019,01,28,17,56,5.10
2019,01,28,17,57,5.10
2019,01,28,17,58,5.00
2019,01,28,17,59,5.00